Location: Colorado Springs
(38.8340°N, 104.8210°W)
Time: 13:19:54
(UTC-07:00)

Vanguard 3 - Pass Details

Date: 23 October 2017
Orbit: 509 x 3263 km, 33.3° (Epoch: 22 November)

Event Time Altitude Azimuth Distance (km) Brightness Sun altitude
Rises 08:55:40 0° 276° (W) 5,151 10.7 16.8°
Reaches altitude 10° 09:00:03 10° 269° (W) 3,663 10.1 17.6°
Maximum altitude 09:07:41 35° 208° (SSW) 1,554 8.9 18.8°
Drops below altitude 10° 09:12:27 10° 142° (SE) 2,259 11.1 19.6°
Sets 09:14:33 0° 132° (SE) 2,980 11.6 19.9°
